Regional Weather Roundup
Issued by NWS

Home | Current Version | Previous Version | Text Only | Print | Product List | Glossary Off
Versions: 1 2 3 4 5 6 7 8 9 10 11 12 13 14 15 16 17 18 19 20 21 22 23 24 25 26 27 28

000
ASUS45 KSLC 242110
RWRUT

UTAH REGIONAL WEATHER ROUNDUP
NATIONAL WEATHER SERVICE SALT LAKE CITY UT
300 PM MDT FRI OCT 24 2014

UTZ001>011-023>025-242200-

NORTHERN UTAH

CITY           SKY/WX    TMP DP  RH WIND       PRES   REMARKS
BRIGHAM CITY   MOSUNNY   73  30  20 SW3       30.14F
HILL AFB       SUNNY     74  34  23 S8        30.15F
LOGAN          SUNNY     73  32  22 SE9       30.13F
OGDEN          SUNNY     75  32  20 S8        30.13F
PROVO AIRPORT  SUNNY     77  32  19 CALM      30.15F
SALT LAKE CITY SUNNY     78  29  16 S15       30.10F
VERNAL         SUNNY     67  37  33 VRB3      30.22F
WENDOVER       SUNNY     63  34  34 E7        30.13F
HEBER CITY     SUNNY     73  27  17 SW15      30.19F
WEST JORDAN    SUNNY     77  43  29 S15G21    30.13F

$$

UTZ012>022-026-027-242200-

SOUTHERN/CENTRAL UTAH

CITY           SKY/WX    TMP DP  RH WIND       PRES   REMARKS
BLANDING       SUNNY     72  33  23 S8        30.37F
BRYCE CANYON   SUNNY     67  33  28 S14       30.36F
CEDAR CITY     SUNNY     75  25  15 SW17G24   30.21F
DELTA          SUNNY     78  27  15 SW15      30.15F
HANKSVILLE       N/A     77  32  19 E3        30.20F
MILFORD        SUNNY     77  32  19 S15       30.17F
MOAB/CYNLANDS  SUNNY     76  33  21 CALM      30.18F
PRICE          SUNNY     67  30  25 VRB5      30.27F
ST GEORGE      CLEAR     79  37  22 CALM      30.11F
KANAB            N/A     75  32  20 S3        30.24F

$$

REGIONAL REPORTS     COLORADO/ARIZONA

CITY           SKY/WX    TMP DP  RH WIND       PRES   REMARKS
CRAIG, CO      SUNNY     74  26  16 SW16G24   30.25F
GRAND JUNCTION SUNNY     73  34  23 NW6       30.23F
RIFLE          SUNNY     70  34  26 NW6       30.25F
MONTROSE       SUNNY     74  32  21 N7        30.28F
CORTEZ         SUNNY     74  30  19 VRB3      30.30F
PAGE, AZ       SUNNY     75  35  23 E6        30.20F
GRAND CANYON   SUNNY     73  24  16 MISG      30.32F
KINGMAN        SUNNY     84  39  20 SW8       30.12F
FLAGSTAFF      SUNNY     71  25  17 VRB6      30.35F

$$

REGIONAL REPORTS    NEVADA/IDAHO/WYOMING

CITY           SKY/WX    TMP DP  RH WIND       PRES   REMARKS
LAS VEGAS, NV  SUNNY     84  38  19 CALM      30.01F
ELY            SUNNY     74  19  12 SW21G33   30.19F
ELKO           SUNNY     78  19  11 SW13      30.07F
POCATELLO, ID  SUNNY     72  35  25 SW3       30.09F
BURLEY         SUNNY     74  35  24 NW6       30.04F
EVANSTON, WY   SUNNY     69  23  17 SW17G26   30.25F
ROCK SPRINGS   SUNNY     67  22  18 W12G18    30.23F
KEMMERER       SUNNY     66  19  16 W13G29    30.26F

$$



USA.gov is the U.S. government's official web portal to all federal, state and local government web resources and services.